EW8616 Weather Reports


time (UTC)temp
C
wind
direction
speed
KPH
gust
KPH
rain 1hr
cm
rain 24hr
cm
rain mn
cm
humidity
%
barometer
mb
20260505073836 12 241 0.0 0.0 0.00 0.00 0.00 81 1009.7
20260505073349 12 241 0.0 0.0 0.00 0.00 0.00 81 1009.6
20260505072820 12 241 0.0 0.0 0.00 0.00 0.00 81 1009.6
20260505072332 12 241 0.0 0.0 0.00 0.00 0.00 81 1009.5
20260505071824 12 241 0.0 0.0 0.00 0.00 0.00 81 1009.4
20260505071356 12 241 0.0 0.0 0.00 0.00 0.00 82 1009.4
20260505070826 12 241 0.0 0.0 0.00 0.00 0.00 82 1009.3
20260505070319 12 241 0.0 0.0 0.00 0.00 0.00 82 1009.2
20260505065832 12 241 0.0 0.0 0.00 0.00 0.00 82 1009.2
20260505065324 12 241 0.0 0.0 0.00 0.00 0.00 82 1009.2
20260505064837 12 241 0.0 0.0 0.00 0.00 0.00 82 1009.2
20260505064328 12 241 0.0 0.0 0.00 0.00 0.00 82 1009.2
20260505063820 12 241 0.0 0.0 0.00 0.00 0.00 81 1009.2
20260505063332 12 241 0.0 0.0 0.00 0.00 0.00 81 1009.1
20260505062825 13 241 0.0 0.0 0.00 0.00 0.00 81 1009.0
20260505062317 13 241 0.0 1.6 0.00 0.00 0.00 81 1008.9
20260505061829 13 241 0.0 3.2 0.00 0.00 0.00 81 1008.9
20260505061322 13 241 0.0 3.2 0.00 0.00 0.00 81 1008.8
20260505060834 13 241 0.0 0.0 0.00 0.00 0.00 81 1008.8
20260505055819 13 241 0.0 0.0 0.00 0.00 0.00 80 1008.7
20260505055332 13 241 0.0 0.0 0.00 0.00 0.00 80 1008.6
20260505054825 13 241 0.0 0.0 0.00 0.00 0.00 79 1008.6
20260505054317 13 241 0.0 0.0 0.00 0.00 0.00 79 1008.5
20260505053830 13 241 0.0 3.2 0.00 0.00 0.00 79 1008.5
20260505053322 14 241 0.0 3.2 0.00 0.00 0.00 78 1008.5
20260505052855 14 241 0.0 0.0 0.00 0.00 0.00 78 1008.5
20260505052326 14 241 0.0 0.0 0.00 0.00 0.00 78 1008.4
20260505051818 14 241 0.0 0.0 0.00 0.00 0.00 77 1008.4
20260505051330 15 241 0.0 0.0 0.00 0.00 0.00 77 1008.3
20260505050842 15 241 0.0 0.0 0.00 0.00 0.00 76 1008.3
20260505050317 15 241 0.0 0.0 0.00 0.00 0.00 76 1008.4
20260505041318 16 241 0.0 0.0 0.00 0.00 0.00 72 1007.6
20260505040830 16 241 0.0 0.0 0.00 0.00 0.00 72 1007.5
20260505040321 16 241 0.0 0.0 0.00 0.00 0.00 71 1007.5
20260505035834 17 241 0.0 0.0 0.00 0.00 0.00 71 1007.5
20260505035346 17 241 0.0 1.6 0.00 0.00 0.00 71 1007.4
20260505034818 17 241 0.0 1.6 0.00 0.00 0.00 69 1007.3
20260505034330 17 241 0.0 0.0 0.00 0.00 0.00 69 1007.3
20260505033823 17 241 0.0 0.0 0.00 0.00 0.00 70 1007.2
20260505033335 17 241 0.0 0.0 0.00 0.00 0.00 68 1007.1
20260505032828 17 241 0.0 0.0 0.00 0.00 0.00 68 1007.1
20260505032321 18 240 0.0 0.0 0.00 0.00 0.00 69 1007.0
20260505031833 18 242 0.0 0.0 0.00 0.00 0.00 68 1007.0
20260505031325 18 242 0.0 0.0 0.00 0.00 0.00 66 1006.9
20260505030818 18 240 0.0 0.0 0.00 0.00 0.00 67 1006.8
20260505030331 18 240 0.0 0.0 0.00 0.00 0.00 66 1006.7
20260505025824 19 240 0.0 0.0 0.00 0.00 0.00 65 1006.7
20260505025336 19 240 0.0 3.2 0.00 0.00 0.00 66 1006.6
20260505024828 19 240 0.0 4.8 0.00 0.00 0.00 66 1006.6
20260505024324 20 240 1.6 4.8 0.00 0.00 0.00 64 1006.5
20260505023817 20 238 0.0 0.0 0.00 0.00 0.00 64 1006.5
20260505023330 20 238 0.0 0.0 0.00 0.00 0.00 63 1006.4
20260505022822 20 238 0.0 0.0 0.00 0.00 0.00 62 1006.5
20260505022334 20 238 0.0 0.0 0.00 0.00 0.00 62 1006.5
20260505021827 21 238 0.0 0.0 0.00 0.00 0.00 60 1006.4
20260505021319 21 238 0.0 0.0 0.00 0.00 0.00 60 1006.4
20260505020832 21 238 0.0 0.0 0.00 0.00 0.00 60 1006.4
20260505020325 21 184 0.0 0.0 0.00 0.00 0.00 60 1006.3
20260505015817 21 103 0.0 0.0 0.00 0.00 0.00 59 1006.3
20260505015330 22 99 0.0 0.0 0.00 0.00 0.00 59 1006.3
20260505014823 22 99 0.0 0.0 0.00 0.00 0.00 59 1006.3
20260505014334 22 98 0.0 0.0 0.00 0.00 0.00 58 1006.3
20260505013826 22 99 0.0 0.0 0.00 0.00 0.00 58 1006.3
20260505013319 22 99 0.0 1.6 0.00 0.00 0.00 57 1006.3
20260505012832 22 99 0.0 3.2 0.00 0.00 0.00 58 1006.3
20260505012325 22 87 1.6 3.2 0.00 0.00 0.00 56 1006.3
20260505011818 22 246 0.0 0.0 0.00 0.00 0.00 56 1006.3
20260505011329 23 246 0.0 0.0 0.00 0.00 0.00 56 1006.3
20260505010822 23 243 0.0 0.0 0.00 0.00 0.00 56 1006.3
20260505010333 23 243 0.0 0.0 0.00 0.00 0.00 56 1006.4
20260505005845 23 243 0.0 0.0 0.00 0.00 0.00 55 1006.4
20260505005336 23 243 0.0 0.0 0.00 0.00 0.00 55 1006.4
20260505004828 23 243 0.0 0.0 0.00 0.00 0.00 55 1006.3
20260505003832 23 254 0.0 0.0 0.00 0.00 0.00 54 1006.3
20260505003345 23 256 0.0 0.0 0.00 0.00 0.00 54 1006.4
20260505002836 23 257 0.0 0.0 0.00 0.00 0.00 52 1006.3
20260505002348 24 257 0.0 0.0 0.00 0.00 0.00 52 1006.3
20260505001839 24 255 0.0 0.0 0.00 0.00 0.00 54 1006.4
20260505001331 24 256 0.0 0.0 0.00 0.00 0.00 52 1006.4
20260505000823 24 246 0.0 0.0 0.00 0.00 0.00 53 1006.3
20260505000358 24 226 0.0 0.0 0.00 0.00 0.00 52 1006.3
20260504235320 25 90 0.0 0.0 0.00 0.00 0.00 50 1006.3
20260504234818 25 259 0.0 0.0 0.00 0.00 0.00 51 1006.3
20260504234332 25 258 0.0 0.0 0.00 0.00 0.00 51 1006.3
20260504233826 25 252 0.0 0.0 0.00 0.00 0.00 50 1006.3
20260504233317 25 257 0.0 0.0 0.00 0.00 0.00 50 1006.3
20260504232829 25 257 0.0 0.0 0.00 0.00 0.00 50 1006.3
20260504232342 25 257 0.0 0.0 0.00 0.00 0.00 52 1006.4
20260504231853 25 269 0.0 0.0 0.00 0.00 0.00 47 1006.4
20260504231323 25 159 0.0 0.0 0.00 0.00 0.00 49 1006.4
20260504230857 25 247 0.0 0.0 0.00 0.00 0.00 50 1006.6
20260504230328 25 246 0.0 0.0 0.00 0.00 0.00 47 1006.6
20260504225819 25 244 0.0 0.0 0.00 0.00 0.00 47 1006.7
20260504225332 25 260 0.0 0.0 0.00 0.00 0.00 47 1006.8
20260504224824 25 246 0.0 0.0 0.00 0.00 0.00 47 1006.7
20260504224317 25 246 0.0 0.0 0.00 0.00 0.00 45 1006.8
20260504223831 25 247 0.0 0.0 0.00 0.00 0.00 47 1006.8
20260504223322 25 253 0.0 0.0 0.00 0.00 0.00 47 1006.8
20260504222835 25 254 0.0 0.0 0.00 0.00 0.00 47 1006.8
20260504222328 25 250 0.0 0.0 0.00 0.00 0.00 48 1006.9
20260504221822 25 183 0.0 0.0 0.00 0.00 0.00 48 1007.0
20260504221335 25 243 0.0 0.0 0.00 0.00 0.00 48 1007.0
20260504220828 25 300 0.0 0.0 0.00 0.00 0.00 46 1007.0
20260504220319 25 232 0.0 0.0 0.00 0.00 0.00 48 1007.1
20260504215833 25 230 0.0 0.0 0.00 0.00 0.00 49 1007.1
20260504215325 25 234 0.0 0.0 0.00 0.00 0.00 47 1007.1
20260504214818 25 254 0.0 0.0 0.00 0.00 0.00 48 1007.2
20260504214329 25 141 0.0 0.0 0.00 0.00 0.00 47 1007.2
20260504213822 25 106 0.0 0.0 0.00 0.00 0.00 48 1007.3
20260504213355 25 202 0.0 0.0 0.00 0.00 0.00 47 1007.3
20260504212826 25 231 0.0 0.0 0.00 0.00 0.00 47 1007.3
20260504212338 25 234 0.0 0.0 0.00 0.00 0.00 46 1007.4
20260504211830 25 227 0.0 0.0 0.00 0.00 0.00 46 1007.4
20260504211327 25 213 0.0 0.0 0.00 0.00 0.00 47 1007.3
20260504210839 25 213 0.0 0.0 0.00 0.00 0.00 46 1007.3
20260504210331 25 247 0.0 0.0 0.00 0.00 0.00 45 1007.4
20260504205823 25 232 0.0 0.0 0.00 0.00 0.00 45 1007.4
20260504205336 25 189 0.0 0.0 0.00 0.00 0.00 44 1007.5
20260504204829 25 144 0.0 0.0 0.00 0.00 0.00 47 1007.4
20260504204322 25 250 0.0 0.0 0.00 0.00 0.00 45 1007.4
20260504203834 25 34 0.0 0.0 0.00 0.00 0.00 47 1007.4
20260504203326 25 283 0.0 0.0 0.00 0.00 0.00 45 1007.5
20260504202818 25 316 0.0 0.0 0.00 0.00 0.00 45 1007.5
20260504202350 25 257 0.0 0.0 0.00 0.00 0.00 47 1007.5
20260504201821 25 274 0.0 0.0 0.00 0.00 0.00 43 1007.4
20260504201334 25 285 0.0 0.0 0.00 0.00 0.00 44 1007.6
20260504200827 25 307 0.0 0.0 0.00 0.00 0.00 44 1007.7
20260504200320 25 355 0.0 0.0 0.00 0.00 0.00 44 1007.7
20260504195833 25 163 0.0 0.0 0.00 0.00 0.00 46 1007.7
20260504195326 24 161 0.0 0.0 0.00 0.00 0.00 44 1007.6
20260504194839 24 265 0.0 0.0 0.00 0.00 0.00 45 1007.8
20260504194331 24 267 0.0 0.0 0.00 0.00 0.00 45 1007.8
20260504193823 24 245 0.0 0.0 0.00 0.00 0.00 46 1007.8
20260504193336 24 220 0.0 0.0 0.00 0.00 0.00 48 1007.8
20260504192828 24 48 0.0 0.0 0.00 0.00 0.00 47 1007.8
20260504192320 24 49 0.0 0.0 0.00 0.00 0.00 47 1007.8
20260504191832 24 222 0.0 0.0 0.00 0.00 0.00 51 1007.9
20260504191324 23 240 0.0 0.0 0.00 0.00 0.00 50 1007.9
20260504190822 23 5 0.0 0.0 0.00 0.00 0.00 50 1007.9
20260504190333 23 110 0.0 0.0 0.00 0.00 0.00 48 1008.0
20260504185827 23 259 0.0 0.0 0.00 0.00 0.00 49 1008.0
20260504185319 23 232 0.0 0.0 0.00 0.00 0.00 51 1008.0
20260504184831 23 234 0.0 0.0 0.00 0.00 0.00 53 1008.0
20260504184324 22 236 0.0 0.0 0.00 0.00 0.00 52 1008.1
20260504183816 22 231 0.0 0.0 0.00 0.00 0.00 50 1008.1
20260504183329 22 206 0.0 0.0 0.00 0.00 0.00 51 1008.2
20260504182821 22 247 0.0 0.0 0.00 0.00 0.00 53 1008.2
20260504182334 22 239 0.0 0.0 0.00 0.00 0.00 55 1008.2
20260504181827 22 236 0.0 0.0 0.00 0.00 0.00 54 1008.3
20260504181319 22 269 0.0 0.0 0.00 0.00 0.00 57 1008.2
20260504180831 22 267 0.0 0.0 0.00 0.00 0.00 56 1008.2
20260504180323 22 269 0.0 0.0 0.00 0.00 0.00 56 1008.1
20260504175835 22 189 0.0 0.0 0.00 0.00 0.00 55 1008.1
20260504175328 21 254 0.0 0.0 0.00 0.00 0.00 56 1008.2
20260504174821 21 313 0.0 0.0 0.00 0.00 0.00 57 1008.2
20260504174334 21 305 0.0 0.0 0.00 0.00 0.00 59 1008.1
20260504173827 21 285 0.0 0.0 0.00 0.00 0.00 59 1008.2
20260504173318 21 284 0.0 0.0 0.00 0.00 0.00 58 1008.1
20260504172831 21 275 0.0 0.0 0.00 0.00 0.00 60 1008.1
20260504172344 21 278 0.0 0.0 0.00 0.00 0.00 58 1008.1
20260504171820 21 283 0.0 0.0 0.00 0.00 0.00 57 1008.1
20260504171332 21 279 0.0 0.0 0.00 0.00 0.00 58 1008.1
20260504170824 21 309 0.0 0.0 0.00 0.00 0.00 58 1008.0
20260504170336 21 360 0.0 0.0 0.00 0.00 0.00 59 1008.0
20260504160324 19 257 0.0 0.0 0.00 0.00 0.00 63 1007.8
20260504150819 17 201 0.0 0.0 0.00 0.00 0.00 72 1007.5
20260504150351 17 96 0.0 0.0 0.00 0.00 0.00 73 1007.5
20260504141334 13 96 0.0 0.0 0.00 0.00 0.00 77 1007.1
20260504140826 13 96 0.0 0.0 0.00 0.00 0.00 70 1007.1
20260504140318 12 96 0.0 0.0 0.00 0.00 0.00 69 1007.0
20260504130346 -17 0.0 0.0 0.00 0.00 0.00 1006.5
20260504110338 -17 0.0 0.0 0.00 0.00 0.00 1006.4
20260504100332 -17 0.0 0.0 0.00 0.00 0.00 1006.1
20260504081827 15 96 0.0 1.6 0.00 0.00 0.00 78 1006.3
20260504081319 15 96 0.0 1.6 0.00 0.00 0.00 77 1006.2
20260504080832 15 96 0.0 0.0 0.00 0.00 0.00 77 1006.2
20260504080324 15 96 0.0 4.8 0.00 0.00 0.00 77 1006.2